FENGYUN 1C DEB, 31512

Orbit data source: Space-Track

FENGYUN 1C DEB, 31512 is space debris in SSO originally from a launch on Mon, 10 May 1999 UTC launched from the Taiyaun Space Center, China (TSC). Fengyun 1C debris stems from the Chinese weather satellite Fengyun-1C, which was intentionally destroyed by a Chinese anti-satellite missile in 2007. This event dramatically increased the amount of space debris, with thousands of trackable fragments posing hazards to satellites and human spaceflight. The Fengyun 1C debris cloud has become a focal point in discussions about space sustainability and the need for international regulations to prevent the creation of new debris.

Loading next visibility...
Identifier
31512, 1999-025BXB
Orbit
SSO
Country
Flag of CNCN / PRC
Related business
Manufacturer
Unknown
Mission
Spacecraft
Bus & Motor
Unknown
Mass
Unknown
Launch date (UTC)
1999-05-10 (27 years ago)
Launch vehicle
Unknown
Launch site
Taiyaun Space Center, China (TSC)
Object type
Payload
Rocket body
Debris
Shape & HBR
Unknown shape, 0.1 m
Radar Cross Section
Small (<0.1 m²)

Expand to show TLE details & history
Last TLE update: 1 week ago

TLE from 1 week ago
0 FENGYUN 1C DEB
1 31512U 99025BXB 26154.54922748  .00002534  00000-0  66095-3 0  9999
2 31512  98.7927  60.9092 0142612 351.2940 131.0585 14.44555120679963
Epoch: 2026-06-03T13:10Z
TLE epoch observation values (Epoch: 2026-06-03T13:10:53.254Z)
Latitude
55.52856°
Longitude
164.13144°
Altitude
820.221 km
Speed
7.413 km/s
True Right ascension
16h 55m 26s
True Declination
55° 22' 09"
Sunlit
Object was in daylight at epoch
Visualization orbit readout
Latitude
Unknown
Longitude
Unknown
Altitude
Unknown
Speed
Unknown
Apparent Right ascension
Unknown
Apparent Declination
Unknown
Sunlit
N/A
Visualization observer readout
Local Sidereal Time
19:43:00
Azimuth
Unknown
Elevation
Unknown
Doppler factor
Unknown
Orbital elements
Apogee altitude
842.139 km
Perigee altitude
639.095 km
Semi-major axis
7,118.754 km
Eccentricity
0.01426
Inclination
98.7927°
RAAN
60.9092°
Arg. of periapsis
351.294°
True anomaly
132.2764°
Mean anomaly
131.0585°
Eccentric anomaly
131.66888°
Mean motion
3.61358 °/min
Orbital period
99.62 mins
BSTAR
0.00066095
Loading maneuver chart data...
Computing Atmospheric mass density...
Loading historical data...
Loading historical data...
Loading historical data...
Loading historical data...
Loading historical data...
Loading historical data...
Loading historical data...

Documentation

Showing up to 5 results
|